Regional Weather Roundup
Issued by NWS Little Rock, AR

Home | Current Version | Previous Version | Text Only | Print | Product List | Glossary On
Versions: 1 2 3 4 5 6 7 8 9 10 11 12 13 14 15 16 17 18 19 20 21 22 23 24 25 26 27 28 29 30 31 32 33 34 35 36 37 38 39 40 41 42 43 44 45 46 47 48 49 50
000
ASUS44 KLZK 052305
RWRLZK

WEATHER ROUNDUP FOR ARKANSAS
NATIONAL WEATHER SERVICE LITTLE ROCK AR
500 PM CST THU MAR 05 2015

NOTE: "FAIR" INDICATES FEW OR NO CLOUDS BELOW 12,000 FEET WITH NO
SIGNIFICANT WEATHER AND/OR OBSTRUCTIONS TO VISIBILITY.

ARZ001-003-010-029-060000-
NORTHWEST ARKANSAS

CITY           SKY/WX    TMP DP  RH WIND       PRES   REMARKS
FAYETTEVILLE   SUNNY     36  13  38 N5        30.49S
FORT SMITH     SUNNY     42  15  33 N12       30.53R
HARRISON       SUNNY     32   9  38 N8        30.49R WCI  25
BENTONVILLE    SUNNY     36  12  38 N3        30.50R
ROGERS         SUNNY     34  13  41 NE3       30.50R
SILOAM SPGS    SUNNY     37  16  41 N7        30.51S
HIGHFILL       SUNNY     38  14  37 N5        30.48S
SPRINGDALE     SUNNY     36  14  41 NE5       30.51R
$$

ARZ004-005-016-060000-
NORTH CENTRAL ARKANSAS

CITY           SKY/WX    TMP DP  RH WIND       PRES   REMARKS
BATESVILLE     SUNNY     36   9  32 W10       30.54R
FLIPPIN        SUNNY     34   7  32 N7        30.51S WCI  28
MTN HOME       SUNNY     33   7  33 N9        30.50R WCI  25
$$

ARZ040-041-060000-
WEST CENTRAL ARKANSAS

CITY           SKY/WX    TMP DP  RH WIND       PRES   REMARKS
MENA           SUNNY     39  19  45 N8        30.51R
MOUNT IDA      SUNNY     40  13  33 VRB3      30.48R
$$

ARZ009-017-025-026-028-060000-
NORTHEAST ARKANSAS

CITY           SKY/WX    TMP DP  RH WIND       PRES   REMARKS
CORNING        FAIR      28  16  59 NE8       30.54R WCI  20
JONESBORO      SUNNY     25  14  63 E8        30.54R WCI  16
NEWPORT        SUNNY     30  15  53 E5        30.55R WCI  25
WALNUT RIDGE   SUNNY     28  12  50 SE5       30.54R WCI  23
BLYTHEVILLE    SUNNY     25  14  63 N5        30.56R WCI  19
$$

ARZ022-023-033-042-044-060000-
CENTRAL ARKANSAS

CITY           SKY/WX    TMP DP  RH WIND       PRES   REMARKS
LITTLE ROCK    SUNNY     38   9  30 NE8       30.54R
N LITTLE ROCK  SUNNY     37  11  35 N9        30.54R
JACKSONVILLE   SUNNY     38   8  29 N9G17     30.53R
SEARCY         SUNNY     36   9  32 N13       30.55R
HOT SPRINGS    SUNNY     40  10  29 VRB6      30.52R
RUSSELLVILLE   SUNNY     40  11  30 N13       30.52S
CLINTON        FAIR      37   9  30 W10G16    30.54S
$$

ARZ036-060000-
EAST ARKANSAS

CITY           SKY/WX    TMP DP  RH WIND       PRES   REMARKS
WEST MEMPHIS   SUNNY     28  14  55 N9        30.54R WCI  19
$$

ARZ050-053-066-070-073-060000-
SOUTHWEST ARKANSAS

CITY           SKY/WX    TMP DP  RH WIND       PRES   REMARKS
ARKADELPHIA    FAIR      39  20  47 N9        30.54S
CAMDEN         SUNNY     39  10  30 MISG      30.54S
TEXARKANA      SUNNY     40  19  43 NE13      30.52S
EL DORADO      SUNNY     38  17  42 N8        30.53R
DE QUEEN       SUNNY     41  17  38 NE12G17   30.52R
$$

ARZ056-057-069-060000-
SOUTHEAST ARKANSAS

CITY           SKY/WX    TMP DP  RH WIND       PRES   REMARKS
PINE BLUFF     SUNNY     33  12  41 N9        30.55R WCI  25
STUTTGART      SUNNY     34  16  47 N10       30.55R WCI  26
MONTICELLO     SUNNY     36  12  37 N8G24     30.53S

$$




USA.gov is the U.S. government's official web portal to all federal, state and local government web resources and services.